SCP
0 0 0 0 0 0 0 0 0 0 0 0 0 0 0 0 0 0 0 0 0 1 1 1 1 1 1 1 1 1 1 1 1 0 0 0 1 1 1 1 1 1 1
0 0 0 0 0 0 0 0 0 0 0 0 0 0 0 0 0 0 0 0 0 0 1 1 1 1 1 1 1 1 1 1 1 1 0 0 0 1 1 1 1 1 1
0 0 0 0 0 0 0 0 0 0 0 0 0 0 0 0 0 0 0 0 0 0 1 1 1 1 1 1 1 1 1 1 1 1 1 0 0 0 0 0 0 0 0
0 0 0 0 0 0 0 0 0 0 0 0 0 0 0 0 0 0 0 0 0 0 1 1 1 1 1 1 1 1 1 1 1 1 1 1 0 0 0 0 0 0 0
0 0 0 0 0 0 0 0 0 0 0 0 0 0 0 0 0 0 0 0 0 0 0 1 1 1 1 1 1 1 1 1 1 1 1 1 0 0 0 0 1 1 1
0 0 0 0 0 0 0 0 0 0 0 0 0 0 0 0 0 0 0 0 0 0 0 0 0 0 0 1 1 1 1 1 1 1 1 1 0 0 0 1 1 1 1
0 0 0 0 0 0 0 0 0 0 0 0 0 0 0 0 0 0 0 0 0 0 0 0 0 0 0 0 0 0 0 0 0 0 0 0 0 0 0 1 1 1 1
0 0 0 0 0 0 0 0 0 0 0 0 0 0 0 0 0 0 0 0 0 0 0 0 0 0 0 0 0 0 0 0 0 0 0 0 0 1 0 0 1 1 1
0 0 0 0 0 0 0 0 0 0 0 0 0 0 0 0 0 0 0 0 0 0 0 0 0 0 0 0 0 0 0 0 0 0 0 0 0 1 0 0 1 1 1
0 0 0 0 0 0 1 1 0 0 0 0 0 0 0 0 0 0 0 0 0 0 0 0 0 0 0 0 0 0 0 0 0 0 0 0 0 0 0 0 1 1 1
0 0 0 0 0 0 0 0 0 0 0 0 0 0 0 0 0 0 0 0 0 0 0 0 0 0 0 0 0 0 0 0 0 0 0 0 0 0 0 0 0 1 1
0 0 0 0 0 0 0 0 0 0 0 0 0 0 0 0 0 0 0 0 0 0 0 0 0 0 0 0 0 0 0 0 0 0 0 0 0 0 0 0 0 1 1
0 0 0 0 0 0 0 0 0 0 0 0 0 0 0 0 0 0 0 0 0 0 0 0 0 0 0 0 0 0 0 0 0 0 0 0 0 0 0 0 1 1 1
0 0 0 0 0 0 0 0 0 0 0 0 0 0 0 0 0 0 0 0 0 0 0 0 0 0 0 0 0 0 0 0 0 0 0 0 0 0 0 0 0 1 1
0 0 0 0 0 0 0 0 0 0 0 0 0 0 0 0 0 0 0 0 0 0 0 0 0 0 0 0 0 0 0 0 0 0 0 0 0 0 0 0 0 0 1
0 0 0 0 0 0 0 0 0 0 0 0 0 0 0 0 0 0 0 0 0 0 0 0 0 0 0 0 0 0 0 0 0 0 0 0 0 0 0 0 0 0 0
0 0 0 0 0 0 0 0 0 0 0 0 0 0 0 0 0 0 0 0 0 0 0 0 0 0 0 0 0 0 0 0 0 0 0 0 0 0 0 0 0 0 0
0 0 0 0 0 0 0 0 0 0 0 0 0 0 0 0 0 0 0 0 0 0 0 0 0 0 0 0 0 0 0 0 0 0 0 0 0 0 0 0 0 0 0
0 0 0 0 0 0 0 0 0 0 0 0 0 0 0 0 0 0 0 0 0 0 0 0 0 0 0 0 0 0 0 0 0 0 0 0 0 0 0 0 0 0 0
0 0 0 0 0 0 0 0 0 0 0 0 0 0 0 0 0 0 0 0 0 0 0 0 0 0 0 0 0 0 0 0 0 0 0 0 0 0 0 0 0 0 0
0 0 0 0 0 0 0 0 0 0 0 0 0 0 0 0 0 0 0 0 0 0 0 0 0 0 0 0 0 0 0 0 0 0 0 0 0 0 0 0 0 0 0
0 0 0 0 0 0 0 0 0 0 0 0 0 0 0 0 0 0 0 0 0 0 0 0 0 0 0 0 0 0 0 0 0 0 0 0 0 0 0 0 0 0 0
0 0 0 0 0 0 0 0 0 0 0 0 0 0 0 0 0 0 0 0 0 0 0 0 0 0 0 0 0 0 0 0 0 0 0 0 0 0 0 0 0 0 0
0 0 0 0 0 0 0 0 0 0 0 0 0 0 0 0 0 0 0 0 0 0 0 0 0 0 0 0 0 0 0 0 0 0 0 0 0 0 0 0 0 0 0
0 0 0 0 0 0 0 0 0 0 0 0 0 0 0 0 0 0 0 0 0 0 0 0 0 0 0 0 0 0 0 0 0 0 0 0 0 0 0 0 0 0 0
0 0 0 0 0 0 0 0 0 0 0 0 0 0 0 0 0 0 0 0 0 0 0 0 0 0 0 0 0 0 0 0 0 0 0 0 0 0 0 0 0 0 0
Wind_Speed
2 2 2 2 2 2 2 3 3 3 4 4 4 4 4 4 4 4 3 7 8 8 8 9 8 9 9 9 9 9 9 8 8 8 8 7 7 7 7 6 6 5 4
2 2 2 2 2 2 2 2 3 3 3 3 3 4 4 3 4 4 3 4 7 7 8 8 8 8 8 8 8 8 8 8 8 7 7 8 7 6 6 6 5 5 4
2 2 2 2 2 2 2 3 3 3 3 3 3 3 3 3 3 3 3 3 4 6 7 7 7 7 7 7 7 7 8 7 7 7 7 7 7 7 7 6 5 5 5
2 2 2 2 1 2 2 2 2 3 3 3 2 2 2 3 3 3 3 3 3 3 5 6 6 6 7 7 7 7 7 7 6 6 6 6 6 7 7 6 6 5 5
1 2 2 1 2 2 2 2 2 2 2 2 2 2 3 3 3 3 3 3 3 3 2 4 6 5 6 6 6 6 6 6 7 7 7 7 7 7 6 6 6 5 5
1 1 2 2 2 2 2 2 2 2 2 1 2 3 3 2 2 3 3 2 2 3 3 3 3 4 5 5 5 5 5 6 6 7 7 7 7 6 7 7 6 5 5
1 2 2 2 2 2 2 2 2 2 2 1 2 2 3 3 3 2 2 2 3 3 3 3 2 2 2 4 4 5 5 5 5 6 6 6 6 6 6 6 6 6 5
1 1 2 1 1 2 2 2 2 1 1 1 2 2 2 3 3 2 2 2 2 2 2 3 2 2 2 2 3 5 5 5 5 5 5 5 6 6 6 6 6 6 5
1 1 1 1 1 2 1 1 2 2 1 1 1 2 2 1 1 2 2 2 2 2 2 2 2 2 2 1 2 3 4 5 5 5 4 5 5 5 5 6 6 6 5
1 1 1 1 1 1 1 1 2 1 2 1 1 1 1 2 2 1 2 2 2 2 2 2 2 2 2 1 1 2 3 3 4 4 4 4 4 5 5 6 6 6 5
2 1 1 1 1 1 1 1 1 1 1 2 1 1 1 2 1 2 1 2 2 1 1 1 2 2 2 1 1 2 3 3 3 3 4 4 4 4 4 5 5 5 5
1 2 1 1 1 1 1 1 2 2 1 2 2 2 2 1 1 1 1 1 2 2 2 1 1 2 2 1 2 3 2 3 3 3 3 3 4 4 4 5 4 4 4
1 1 1 0 0 0 1 1 2 2 1 2 2 1 1 1 1 2 2 1 1 2 2 1 1 1 2 1 2 3 2 2 2 2 3 3 3 4 4 4 4 4 4
1 1 0 0 0 1 1 1 1 1 1 1 1 1 1 0 1 1 2 2 0 1 1 2 2 1 1 1 2 2 2 2 3 2 2 2 2 3 4 4 4 4 4
1 0 0 0 0 1 1 1 1 1 1 1 1 1 1 0 0 0 1 2 3 1 2 2 2 2 2 1 2 1 1 2 3 3 2 2 2 3 4 4 4 4 4
1 1 1 1 1 0 1 1 1 1 1 0 1 1 0 0 0 0 1 1 1 2 2 2 2 2 2 2 2 1 1 3 4 4 3 3 2 3 3 3 3 4 4
1 1 1 1 1 1 1 1 1 1 1 1 0 1 1 0 1 0 0 1 1 1 2 1 1 1 1 2 2 2 1 1 1 4 4 3 3 3 3 3 3 4 4
0 1 1 1 1 1 1 1 1 1 1 1 0 1 1 1 1 1 1 1 1 1 2 1 1 1 1 1 1 2 2 1 1 2 3 3 4 4 4 4 4 4 4
1 1 1 1 1 1 1 1 1 1 1 1 1 1 1 1 1 1 1 1 1 1 1 1 1 1 1 1 1 2 2 2 1 2 2 3 3 4 4 4 4 4 4
1 1 1 1 1 0 1 1 1 1 1 0 0 1 1 1 2 2 1 2 1 1 1 1 0 1 1 1 1 1 2 2 1 2 2 2 3 3 4 5 4 4 4
1 1 1 1 1 0 0 0 1 1 0 0 1 1 1 2 2 2 1 2 2 2 1 1 0 0 0 0 0 0 1 2 2 1 1 2 2 2 2 4 4 4 4
2 2 1 1 1 1 1 1 1 1 0 0 1 2 1 1 1 1 1 2 3 3 2 2 1 1 1 1 0 0 0 1 2 1 1 2 1 1 2 2 4 4 4
2 1 1 1 1 2 2 1 1 1 0 1 1 1 1 1 1 1 2 1 2 2 3 4 3 3 2 2 2 1 1 1 2 1 0 2 1 2 2 3 4 4 4
1 1 1 1 1 2 3 2 1 1 0 1 1 1 1 2 1 1 1 0 1 1 2 2 3 4 3 3 3 3 2 1 1 1 1 2 2 2 3 2 4 4 4
1 0 0 1 1 3 4 2 2 0 0 1 1 1 1 2 2 1 0 1 0 1 1 0 1 0 1 1 2 2 1 1 1 1 1 1 1 2 2 2 3 4 4
1 0 0 1 1 2 4 3 2 0 0 1 1 2 2 2 3 0 1 1 1 2 1 1 1 2 1 1 2 3 3 2 1 2 2 1 1 1 2 2 1 2 2
Wind_Direction
56 49 49 46 44 47 56 62 66 65 60 54 53 56 50 47 43 39 29 47 60 68 70 70 75 76 72 69 66 62 59 58 60 61 61 60 61 62 58 56 56 55 65
74 64 51 43 39 44 57 74 75 73 65 64 53 49 50 45 44 42 35 34 46 56 62 64 72 75 71 67 64 60 57 60 58 58 59 60 57 58 58 54 53 51 58
73 77 69 50 33 44 64 73 69 67 69 65 54 45 48 45 45 41 37 34 31 43 54 58 67 73 69 66 63 61 61 60 57 55 55 54 54 53 54 52 48 44 49
73 82 74 50 39 59 66 76 71 69 63 61 56 40 42 42 38 39 41 36 32 26 33 46 62 69 66 62 59 59 62 60 55 53 51 49 49 49 49 45 43 44 44
66 98 87 62 65 73 69 80 67 80 79 61 65 52 40 40 28 34 38 36 32 29 25 27 39 48 55 56 55 56 57 57 55 51 49 49 48 45 41 41 41 42 43
61 86 83 66 74 80 63 73 81 66 79 75 70 59 40 36 36 34 28 30 28 28 31 27 17 19 33 43 45 45 46 46 51 51 47 45 43 42 37 35 35 38 42
73 94 84 78 81 95 96 99 95 77 53 50 73 45 22 33 41 32 25 29 25 19 25 23 18 13 11 21 24 29 34 36 43 46 44 41 39 37 34 30 30 31 32
44 100 105 108 103 98 89 91 97 96 57 47 96 90 27 3 3 17 16 24 11 12 17 16 19 18 12 11 13 19 21 21 28 36 36 35 34 31 29 28 26 24 30
358 82 112 116 112 118 123 116 110 114 120 43 57 123 132 207 314 342 2 12 8 9 355 358 13 5 12 13 359 2 11 9 14 21 26 29 29 28 23 22 22 23 29
360 59 108 114 113 105 114 141 124 129 129 122 42 45 101 148 142 330 332 346 1 359 348 355 357 358 7 5 357 351 357 1 6 14 18 23 23 24 22 20 18 20 25
8 28 73 99 115 114 123 117 101 107 116 136 137 115 78 60 83 141 279 321 336 325 333 339 346 351 359 359 338 346 354 360 5 13 18 15 13 13 15 15 16 19 19
350 7 36 56 81 107 126 131 122 117 119 118 116 115 130 135 160 143 184 273 300 309 326 331 341 339 339 353 347 352 352 353 359 1 8 8 5 3 4 6 8 15 18
322 310 7 53 84 141 140 124 127 127 123 123 128 132 143 159 153 149 149 204 289 309 327 333 322 330 333 351 334 338 340 356 358 356 356 359 2 1 359 2 4 9 13
276 275 221 154 144 124 123 119 124 140 126 131 129 126 133 171 143 154 156 149 98 329 334 308 317 321 326 321 330 337 330 359 8 4 1 9 14 5 358 3 5 8 10
299 1 352 105 76 86 115 127 120 130 129 146 151 157 159 188 162 165 153 156 154 188 280 292 301 314 326 321 348 352 328 356 20 14 9 12 19 13 2 359 3 5 7
5 98 55 75 83 86 115 125 130 121 111 145 151 136 165 155 134 140 174 171 155 165 213 263 264 303 321 340 357 355 329 7 25 23 17 11 7 0 351 357 9 3 359
45 79 86 89 85 79 76 103 93 115 124 92 144 163 206 173 137 152 138 128 135 144 184 273 295 322 342 346 346 349 357 6 6 23 23 22 20 14 7 5 5 5 3
99 91 93 96 89 75 85 117 120 98 135 137 202 186 225 174 160 177 153 174 185 172 165 231 301 330 316 326 342 348 359 13 18 24 18 18 27 21 16 15 11 9 4
79 72 83 83 78 68 71 87 114 102 114 167 199 200 233 188 201 192 182 195 206 158 128 162 273 312 326 347 360 0 359 353 359 11 13 12 15 15 14 8 4 1 358
93 82 71 64 60 64 61 69 86 83 73 10 262 218 226 210 215 204 197 199 175 133 110 124 208 335 333 337 18 7 353 352 339 353 360 5 9 9 3 359 353 346 339
62 59 64 41 19 45 78 84 105 99 105 337 308 281 243 232 227 205 194 187 167 155 145 140 126 8 323 5 301 288 304 330 327 346 350 348 354 357 343 333 333 339 332
52 51 49 47 6 334 14 39 93 133 146 236 290 297 285 267 279 276 265 199 171 163 170 165 182 218 255 237 219 189 163 9 313 324 353 319 353 321 311 308 323 326 331
65 51 28 20 333 320 356 7 26 69 149 247 280 305 314 319 323 291 294 280 222 203 185 179 185 213 215 211 185 195 210 216 237 264 267 287 312 299 301 315 323 321 322
79 59 16 344 328 333 355 4 21 43 38 288 274 259 266 285 297 327 288 268 247 258 234 209 200 213 209 197 188 196 204 212 281 288 172 251 279 278 299 301 316 317 319
71 14 321 343 331 319 334 347 22 137 326 310 304 315 287 279 310 14 101 172 286 306 306 297 293 304 248 183 147 118 122 132 264 268 212 221 268 289 294 293 310 324 324
159 184 313 308 297 305 329 354 28 115 337 330 333 320 316 316 316 312 171 181 215 255 247 282 324 329 302 211 179 179 181 183 208 248 222 198 234 290 302 294 306 319 323